User: anonymous   Login
Location: Hamilton Branch State Park
(33.7552°N, 82.2209°W)
Time: 02:23:39
(UTC-05:00)
Language:

UWE-3 - Orbit

View from above orbital plane
View from above orbital plane
View from above satellite
View from above satellite

Ground track
Ground track

The orbit data is extracted from the following two-line orbital elements,

1 39446U 13066AG  19323.52716169 +.00000205 +00000-0 +34017-4 0  9993
2 39446 097.5865 320.1230 0068516 278.2926 081.0521 14.78452523321409
Epoch (UTC): 19 November 2019 12:39:06
Eccentricity: 0.0068516
inclination: 97.5865°
perigee height: 586 km
apogee height: 682 km
right ascension of ascending node: 320.1230°
argument of perigee: 278.2926°
revolutions per day: 14.78452523
mean anomaly at epoch: 81.0521°
orbit number at epoch: 32140

The dashed part of the orbit path shows where the satellite is in the earth's shadow,  

DLR